This is the latest recevied weather packets stored in our database for station/object KB3MVG-13. If no packets are shown the sender has not sent any weather packets the latest 10 day(s).
| Time | Temp. | Humidity | Pressure | Rain* | Wind** | Luminosity | Snow |
|---|---|---|---|---|---|---|---|
| 1778090116 | 0° C | 100% | 1024 hPa | 0 mm | - | 177 W/m² | - |
| 1778085316 | 0.56° C | 100% | 1022.9 hPa | 0.51 mm | - | 105 W/m² | - |
| 1778083516 | 0° C | 100% | 1022.6 hPa | 0.51 mm | - | 78 W/m² | - |
| 1778081116 | 0° C | 100% | 1022.5 hPa | 0 mm | - | 52 W/m² | - |
| 1778076316 | -0.56° C | 100% | 1021.8 hPa | 0 mm | - | 27 W/m² | - |
| 1778075116 | -0.56° C | 100% | 1021.7 hPa | 0 mm | - | 18 W/m² | - |
| 1778073356 | -0.56° C | 100% | 1021.4 hPa | 0 mm | - | 11 W/m² | - |
| 1778067316 | -0.56° C | 100% | 1019.9 hPa | 0 mm | - | 0 W/m² | - |
| 1778064316 | -0.56° C | 100% | 1019.9 hPa | 0 mm | - | 0 W/m² | - |
| 1778058316 | -0.56° C | 100% | 1020 hPa | 0 mm | - | 0 W/m² | - |
| 1778056516 | -0.56° C | 100% | 1020.1 hPa | 0 mm | - | 0 W/m² | - |
| 1778053816 | -0.56° C | 100% | 1020.1 hPa | 0 mm | - | 0 W/m² | - |
| 1778050816 | -0.56° C | 100% | 1019.7 hPa | 0 mm | - | 0 W/m² | - |
| 1778043617 | -0.56° C | 100% | 1018.2 hPa | 0 mm | - | 0 W/m² | - |
| 1778043017 | -0.56° C | 100% | 1018.1 hPa | 0 mm | - | 0 W/m² | - |
| 1778040617 | -0.56° C | 100% | 1018.2 hPa | 0 mm | - | 0 W/m² | - |
| 1778037017 | -0.56° C | 100% | 1016.8 hPa | 0 mm | - | 0 W/m² | - |
| 1778036437 | -0.56° C | 100% | 1016.7 hPa | 0 mm | - | 0 W/m² | - |
| 1778035817 | -0.56° C | 100% | 1016.4 hPa | 0 mm | - | 0 W/m² | - |
| 1778034637 | -0.56° C | 100% | 1015.7 hPa | 0 mm | - | 0 W/m² | - |
| 1778033457 | -0.56° C | 100% | 1015 hPa | 0 mm | - | 0 W/m² | - |
| 1778028017 | -0.56° C | 100% | 1014.3 hPa | 0 mm | - | 19 W/m² | - |
| 1778027417 | -0.56° C | 99% | 1014.1 hPa | 0 mm | - | 18 W/m² | - |
| 1778023237 | 0° C | 98% | 1013.6 hPa | 0 mm | - | 97 W/m² | - |
| 1778022017 | 0° C | 97% | 1012.9 hPa | 0.25 mm | - | 27 W/m² | - |
* Rain latest hour (hover to see other rain measurements)
** Current wind speed in m/s (hover to see current wind gust speed)